VLG74Y LEVC-LEBB

Flight info

Callsign VLG74Y
Flight time 1h 1m
Altitude 13000
Route CENTA N733 BENED/N0455F340 DCT CJN DCT RBO N867 DGO
Aircraft A20N/M-SDE2E3FGHIRWXY/LB1

Departure

Time 2026-05-08 16:54
Airport Valencia Airport (LEVC)

Arrival

Time 2026-05-08 17:55
Airport Bilbao Airport (LEBB)
Time Latitude Longitude Altitude Speed Heading
2026-05-08 16:13 39.49054 -0.47378 197 ft 0 kts 20°
2026-05-08 16:23 39.49054 -0.47379 197 ft 0 kts 21°
2026-05-08 16:24 39.49053 -0.47379 197 ft 0 kts 21°
2026-05-08 16:39 39.49052 -0.47379 197 ft 0 kts 21°
2026-05-08 16:40 39.49039 -0.47386 211 ft 3 kts 21°
2026-05-08 16:40 39.49022 -0.47394 207 ft 3 kts 21°
2026-05-08 16:40 39.49005 -0.47402 205 ft 3 kts 21°
2026-05-08 16:41 39.48988 -0.47407 204 ft 3 kts
2026-05-08 16:41 39.48971 -0.47403 209 ft 3 kts 305°
2026-05-08 16:41 39.48969 -0.47400 208 ft 0 kts 291°
2026-05-08 16:46 39.48971 -0.47404 209 ft 2 kts 295°
2026-05-08 16:46 39.48974 -0.47414 210 ft 3 kts 296°
2026-05-08 16:46 39.48993 -0.47464 209 ft 9 kts 296°
2026-05-08 16:46 39.49025 -0.47547 211 ft 11 kts 296°
2026-05-08 16:47 39.49056 -0.47629 210 ft 5 kts 296°
2026-05-08 16:47 39.49057 -0.47672 207 ft 7 kts 260°
2026-05-08 16:47 39.49039 -0.47775 204 ft 15 kts 257°
2026-05-08 16:47 39.49035 -0.47906 215 ft 13 kts 298°
2026-05-08 16:48 39.49073 -0.48008 212 ft 12 kts 297°
2026-05-08 16:48 39.49118 -0.48122 213 ft 15 kts 296°
2026-05-08 16:48 39.49157 -0.48229 216 ft 12 kts 296°
2026-05-08 16:48 39.49196 -0.48332 216 ft 12 kts 296°
2026-05-08 16:49 39.49236 -0.48433 216 ft 15 kts 295°
2026-05-08 16:49 39.49291 -0.48579 224 ft 18 kts 296°
2026-05-08 16:49 39.49350 -0.48734 222 ft 20 kts 296°
2026-05-08 16:49 39.49409 -0.48887 225 ft 18 kts 296°
2026-05-08 16:50 39.49465 -0.49035 224 ft 21 kts 296°
2026-05-08 16:50 39.49509 -0.49150 226 ft 21 kts 297°
2026-05-08 16:50 39.49594 -0.49374 230 ft 21 kts 296°
2026-05-08 16:50 39.49658 -0.49542 237 ft 20 kts 296°
2026-05-08 16:51 39.49717 -0.49695 239 ft 20 kts 296°
2026-05-08 16:51 39.49775 -0.49849 244 ft 18 kts 296°
2026-05-08 16:51 39.49798 -0.49932 247 ft 6 kts 264°
2026-05-08 16:51 39.49774 -0.49966 248 ft 8 kts 210°
2026-05-08 16:52 39.49730 -0.49996 250 ft 0 kts 206°
2026-05-08 16:52 39.49725 -0.49999 250 ft 5 kts 206°
2026-05-08 16:52 39.49685 -0.50024 250 ft 7 kts 202°
2026-05-08 16:53 39.49620 -0.49970 247 ft 10 kts 115°
2026-05-08 16:53 39.49539 -0.49754 240 ft 63 kts 116°
2026-05-08 16:53 39.49210 -0.48879 230 ft 151 kts 114°
2026-05-08 16:54 39.48713 -0.47496 649 ft 182 kts 112°
2026-05-08 16:54 39.48115 -0.45966 1356 ft 200 kts 116°
2026-05-08 16:54 39.47475 -0.44443 1894 ft 193 kts 120°
2026-05-08 16:54 39.46689 -0.42980 2447 ft 197 kts 127°
2026-05-08 16:55 39.45833 -0.41563 3064 ft 203 kts 128°
2026-05-08 16:55 39.44941 -0.40113 3688 ft 207 kts 129°
2026-05-08 16:55 39.44038 -0.38639 4318 ft 211 kts 129°
2026-05-08 16:55 39.43121 -0.37136 4952 ft 214 kts 130°
2026-05-08 16:56 39.42204 -0.35633 5572 ft 218 kts 130°
2026-05-08 16:56 39.41225 -0.34027 6231 ft 237 kts 131°
2026-05-08 16:56 39.40181 -0.32318 6853 ft 245 kts 130°
2026-05-08 16:56 39.39080 -0.30618 7461 ft 249 kts 136°
2026-05-08 16:57 39.37810 -0.29085 8088 ft 250 kts 144°
2026-05-08 16:57 39.36367 -0.27824 8725 ft 252 kts 154°
2026-05-08 16:57 39.34773 -0.26876 9370 ft 253 kts 164°
2026-05-08 16:57 39.33080 -0.26273 10012 ft 253 kts 174°
2026-05-08 16:58 39.31318 -0.26030 10625 ft 260 kts 183°
2026-05-08 16:58 39.29474 -0.26169 11246 ft 271 kts 193°
2026-05-08 16:58 39.27605 -0.26733 11890 ft 279 kts 202°
2026-05-08 16:58 39.25820 -0.27721 12527 ft 279 kts 212°
2026-05-08 16:59 39.24205 -0.29090 13171 ft 277 kts 222°
2026-05-08 16:59 39.22805 -0.30794 13817 ft 276 kts 231°
2026-05-08 16:59 39.21659 -0.32778 14411 ft 275 kts 240°
2026-05-08 16:59 39.20799 -0.34978 15016 ft 276 kts 248°
2026-05-08 17:00 39.20242 -0.37354 15631 ft 278 kts 257°
2026-05-08 17:00 39.20012 -0.39834 16235 ft 281 kts 266°
2026-05-08 17:00 39.20124 -0.42360 16874 ft 285 kts 275°
2026-05-08 17:00 39.20592 -0.44865 17523 ft 291 kts 284°
2026-05-08 17:01 39.21424 -0.47273 18183 ft 298 kts 293°
2026-05-08 17:01 39.22622 -0.49503 18773 ft 308 kts 303°
2026-05-08 17:01 39.24180 -0.51457 19365 ft 318 kts 314°
2026-05-08 17:01 39.26073 -0.53027 19967 ft 329 kts 324°
2026-05-08 17:02 39.28088 -0.54390 20577 ft 331 kts 322°
2026-05-08 17:02 39.29993 -0.56020 21207 ft 326 kts 313°
2026-05-08 17:02 39.31581 -0.58055 21846 ft 319 kts 301°
2026-05-08 17:02 39.32877 -0.60370 22504 ft 319 kts 297°
2026-05-08 17:03 39.34184 -0.62709 23174 ft 325 kts 301°
2026-05-08 17:03 39.35792 -0.64836 23834 ft 337 kts 311°
2026-05-08 17:03 39.37645 -0.66739 24417 ft 342 kts 314°
2026-05-08 17:03 39.39554 -0.68584 25009 ft 344 kts 314°
2026-05-08 17:04 39.41486 -0.70432 25612 ft 345 kts 314°
2026-05-08 17:04 39.43417 -0.72278 26229 ft 345 kts 314°
2026-05-08 17:04 39.45343 -0.74122 26856 ft 345 kts 314°
2026-05-08 17:04 39.47267 -0.75969 27503 ft 343 kts 314°
2026-05-08 17:05 39.49178 -0.77804 28170 ft 341 kts 313°
2026-05-08 17:05 39.51080 -0.79632 28842 ft 338 kts 313°
2026-05-08 17:05 39.52957 -0.81438 29538 ft 334 kts 313°
2026-05-08 17:05 39.54813 -0.83226 30139 ft 331 kts 312°
2026-05-08 17:06 39.56658 -0.85007 30619 ft 329 kts 311°
2026-05-08 17:06 39.58486 -0.86775 31124 ft 327 kts 311°
2026-05-08 17:06 39.60303 -0.88531 31622 ft 324 kts 311°
2026-05-08 17:06 39.62106 -0.90273 32118 ft 321 kts 311°
2026-05-08 17:07 39.63882 -0.91990 32626 ft 316 kts 310°
2026-05-08 17:07 39.65633 -0.93682 33148 ft 311 kts 310°
2026-05-08 17:07 39.67352 -0.95343 33634 ft 305 kts 309°
2026-05-08 17:07 39.69006 -0.96997 33900 ft 303 kts 306°
2026-05-08 17:08 39.70516 -0.98886 33920 ft 299 kts 298°
2026-05-08 17:08 39.71740 -1.01005 33915 ft 289 kts 291°
2026-05-08 17:08 39.72762 -1.03235 33918 ft 290 kts 289°
2026-05-08 17:08 39.73764 -1.05556 33918 ft 299 kts 289°
2026-05-08 17:09 39.75864 -1.10434 33921 ft 319 kts 289°
2026-05-08 17:09 39.78118 -1.15635 33928 ft 339 kts 290°
2026-05-08 17:10 39.80506 -1.21133 33925 ft 359 kts 290°
2026-05-08 17:10 39.83027 -1.26946 33917 ft 378 kts 291°
2026-05-08 17:11 39.85669 -1.33045 33925 ft 396 kts 291°
2026-05-08 17:11 39.88429 -1.39429 33928 ft 409 kts 291°
2026-05-08 17:12 39.91221 -1.45884 33932 ft 409 kts 291°
2026-05-08 17:12 39.94009 -1.52350 33935 ft 408 kts 291°
2026-05-08 17:13 39.96784 -1.58813 33934 ft 409 kts 291°
2026-05-08 17:13 39.99555 -1.65285 33935 ft 409 kts 291°
2026-05-08 17:14 40.02324 -1.71762 33945 ft 409 kts 291°
2026-05-08 17:14 40.05089 -1.78250 33937 ft 413 kts 291°
2026-05-08 17:15 40.07881 -1.84814 33922 ft 414 kts 291°
2026-05-08 17:15 40.10676 -1.91392 33961 ft 414 kts 291°
2026-05-08 17:16 40.13460 -1.97958 33926 ft 413 kts 291°
2026-05-08 17:16 40.16245 -2.04521 33916 ft 413 kts 291°
2026-05-08 17:17 40.19038 -2.11078 33916 ft 412 kts 291°
2026-05-08 17:17 40.21824 -2.17634 33911 ft 412 kts 290°
2026-05-08 17:18 40.24589 -2.24206 33916 ft 414 kts 291°
2026-05-08 17:18 40.27373 -2.30866 33923 ft 419 kts 291°
2026-05-08 17:19 40.30154 -2.37527 33912 ft 419 kts 291°
2026-05-08 17:19 40.32950 -2.44228 33909 ft 419 kts 291°
2026-05-08 17:20 40.35743 -2.50931 33911 ft 419 kts 291°
2026-05-08 17:20 40.39181 -2.57222 33904 ft 430 kts 301°
2026-05-08 17:21 40.43150 -2.63137 33908 ft 433 kts 303°
2026-05-08 17:21 40.47221 -2.68982 33916 ft 435 kts 304°
2026-05-08 17:22 40.51318 -2.74867 33906 ft 437 kts 304°
2026-05-08 17:22 40.55411 -2.80786 33912 ft 437 kts 303°
2026-05-08 17:23 40.59491 -2.86713 33907 ft 437 kts 303°
2026-05-08 17:23 40.63533 -2.92604 33912 ft 437 kts 303°
2026-05-08 17:24 40.67608 -2.98554 33917 ft 437 kts 303°
2026-05-08 17:24 40.71676 -3.04505 33916 ft 436 kts 303°
2026-05-08 17:25 40.75746 -3.10470 33919 ft 438 kts 303°
2026-05-08 17:25 40.79941 -3.16349 33918 ft 446 kts 309°
2026-05-08 17:26 40.85216 -3.20869 33918 ft 468 kts 328°
2026-05-08 17:26 40.88349 -3.22232 33924 ft 481 kts 339°
2026-05-08 17:26 40.91703 -3.22803 33921 ft 493 kts 351°
2026-05-08 17:27 40.98626 -3.21914 33921 ft 504 kts
2026-05-08 17:27 41.05568 -3.20313 33922 ft 506 kts
2026-05-08 17:28 41.12502 -3.18643 33930 ft 506 kts
2026-05-08 17:28 41.19438 -3.17027 33919 ft 504 kts
2026-05-08 17:29 41.26303 -3.15470 33921 ft 504 kts
2026-05-08 17:29 41.33221 -3.13910 33925 ft 504 kts
2026-05-08 17:30 41.40134 -3.12346 33915 ft 503 kts
2026-05-08 17:30 41.47040 -3.10778 33917 ft 503 kts
2026-05-08 17:31 41.53911 -3.09217 33934 ft 503 kts
2026-05-08 17:31 41.60785 -3.07655 33915 ft 500 kts
2026-05-08 17:32 41.67647 -3.06096 33913 ft 499 kts
2026-05-08 17:32 41.74497 -3.04536 33934 ft 498 kts
2026-05-08 17:33 41.81305 -3.02970 33924 ft 495 kts
2026-05-08 17:33 41.88094 -3.01404 33927 ft 495 kts
2026-05-08 17:34 41.94878 -2.99837 33951 ft 495 kts
2026-05-08 17:34 42.01614 -2.98277 33927 ft 494 kts
2026-05-08 17:35 42.08393 -2.96704 33936 ft 494 kts
2026-05-08 17:35 42.15163 -2.95129 33962 ft 494 kts
2026-05-08 17:36 42.18527 -2.94344 33823 ft 484 kts
2026-05-08 17:36 42.21829 -2.93571 33325 ft 479 kts
2026-05-08 17:36 42.25098 -2.92809 32783 ft 475 kts
2026-05-08 17:36 42.28349 -2.92049 32253 ft 471 kts
2026-05-08 17:37 42.31563 -2.91297 31739 ft 467 kts
2026-05-08 17:37 42.33684 -2.90800 31399 ft 464 kts
2026-05-08 17:37 42.37927 -2.89806 30751 ft 460 kts
2026-05-08 17:37 42.41032 -2.89078 30246 ft 457 kts
2026-05-08 17:38 42.44197 -2.88345 29589 ft 455 kts
2026-05-08 17:38 42.47302 -2.87951 28798 ft 453 kts 358°
2026-05-08 17:38 42.50454 -2.87756 27999 ft 454 kts 357°
2026-05-08 17:38 42.52593 -2.87647 27461 ft 455 kts 357°
2026-05-08 17:39 42.56797 -2.87435 26435 ft 457 kts 358°
2026-05-08 17:39 42.58943 -2.87325 25941 ft 457 kts 358°
2026-05-08 17:39 42.62084 -2.87160 25201 ft 458 kts 359°
2026-05-08 17:39 42.65253 -2.86989 24482 ft 451 kts 359°
2026-05-08 17:40 42.68357 -2.86819 23778 ft 442 kts 359°
2026-05-08 17:40 42.71397 -2.86769 22999 ft 431 kts 352°
2026-05-08 17:40 42.74266 -2.87606 22196 ft 414 kts 334°
2026-05-08 17:40 42.76818 -2.89286 21405 ft 403 kts 327°
2026-05-08 17:41 42.79237 -2.91142 20640 ft 395 kts 326°
2026-05-08 17:41 42.81596 -2.92994 19884 ft 388 kts 326°
2026-05-08 17:41 42.83925 -2.94821 19160 ft 383 kts 326°
2026-05-08 17:41 42.86217 -2.96613 18457 ft 377 kts 327°
2026-05-08 17:42 42.88475 -2.98374 17705 ft 371 kts 327°
2026-05-08 17:42 42.90698 -3.00106 16958 ft 365 kts 327°
2026-05-08 17:42 42.92885 -3.01810 16236 ft 359 kts 327°
2026-05-08 17:42 42.95038 -3.03488 15552 ft 353 kts 327°
2026-05-08 17:43 42.97162 -3.05143 14878 ft 348 kts 327°
2026-05-08 17:43 42.99251 -3.06773 14263 ft 344 kts 327°
2026-05-08 17:43 43.01318 -3.08386 13623 ft 339 kts 327°
2026-05-08 17:43 43.03328 -3.09954 12962 ft 334 kts 327°
2026-05-08 17:44 43.05330 -3.11519 12303 ft 328 kts 327°
2026-05-08 17:44 43.07300 -3.13061 11667 ft 324 kts 327°
2026-05-08 17:44 43.09249 -3.14587 11053 ft 320 kts 327°
2026-05-08 17:44 43.11164 -3.16087 10446 ft 316 kts 327°
2026-05-08 17:45 43.13064 -3.17577 9820 ft 314 kts 327°
2026-05-08 17:45 43.14951 -3.19058 9135 ft 311 kts 327°
2026-05-08 17:45 43.16827 -3.20532 8456 ft 309 kts 327°
2026-05-08 17:45 43.18683 -3.21990 7798 ft 306 kts 328°
2026-05-08 17:46 43.20518 -3.23433 7141 ft 301 kts 328°
2026-05-08 17:46 43.22324 -3.24853 6509 ft 298 kts 328°
2026-05-08 17:46 43.24114 -3.26259 5855 ft 295 kts 329°
2026-05-08 17:46 43.26008 -3.27305 5193 ft 294 kts 345°
2026-05-08 17:47 43.28008 -3.27751 4684 ft 286 kts 354°
2026-05-08 17:47 43.29937 -3.27895 4490 ft 267 kts 359°
2026-05-08 17:47 43.31676 -3.27851 4480 ft 243 kts
2026-05-08 17:47 43.32769 -3.27686 4509 ft 225 kts 11°
2026-05-08 17:48 43.34615 -3.26613 4490 ft 215 kts 38°
2026-05-08 17:48 43.35739 -3.25282 4461 ft 214 kts 46°
2026-05-08 17:48 43.36812 -3.23845 4119 ft 215 kts 47°
2026-05-08 17:48 43.37857 -3.22421 3904 ft 206 kts 47°
2026-05-08 17:49 43.38847 -3.21048 3668 ft 198 kts 51°
2026-05-08 17:49 43.39542 -3.19509 3508 ft 183 kts 75°
2026-05-08 17:49 43.39681 -3.17824 3495 ft 175 kts 101°
2026-05-08 17:49 43.39328 -3.16247 3497 ft 172 kts 116°
2026-05-08 17:50 43.38810 -3.14777 3506 ft 170 kts 120°
2026-05-08 17:50 43.38262 -3.13318 3494 ft 173 kts 120°
2026-05-08 17:50 43.37744 -3.11904 3394 ft 161 kts 121°
2026-05-08 17:50 43.37258 -3.10575 3173 ft 151 kts 121°
2026-05-08 17:51 43.36802 -3.09332 2945 ft 142 kts 121°
2026-05-08 17:51 43.36375 -3.08165 2738 ft 133 kts 118°
2026-05-08 17:51 43.35962 -3.07038 2561 ft 132 kts 118°
2026-05-08 17:51 43.35551 -3.05916 2382 ft 131 kts 118°
2026-05-08 17:52 43.35142 -3.04800 2186 ft 130 kts 117°
2026-05-08 17:52 43.34735 -3.03686 2022 ft 131 kts 118°
2026-05-08 17:52 43.33925 -3.01475 1657 ft 129 kts 116°
2026-05-08 17:53 43.33519 -3.00367 1478 ft 130 kts 115°
2026-05-08 17:53 43.33114 -2.99260 1295 ft 129 kts 115°
2026-05-08 17:53 43.32712 -2.98163 1110 ft 129 kts 115°
2026-05-08 17:53 43.32321 -2.97095 948 ft 128 kts 115°
2026-05-08 17:54 43.31923 -2.96008 771 ft 128 kts 115°
2026-05-08 17:54 43.31528 -2.94922 569 ft 128 kts 114°
2026-05-08 17:54 43.31132 -2.93853 371 ft 126 kts 118°
2026-05-08 17:54 43.30750 -2.92798 222 ft 127 kts 114°
2026-05-08 17:55 43.30371 -2.91811 128 ft 117 kts 116°
2026-05-08 17:55 43.30133 -2.91122 126 ft 45 kts 115°
2026-05-08 17:55 43.30054 -2.90904 128 ft 13 kts 118°
2026-05-08 17:55 43.30012 -2.90794 126 ft 16 kts 116°
2026-05-08 17:56 43.29964 -2.90644 127 ft 11 kts 104°
2026-05-08 17:56 43.29947 -2.90551 125 ft 10 kts 103°
2026-05-08 17:56 43.29931 -2.90457 126 ft 11 kts 102°
2026-05-08 17:56 43.29925 -2.90364 131 ft 9 kts 91°
2026-05-08 17:57 43.29928 -2.90275 131 ft 10 kts 84°
2026-05-08 17:57 43.29944 -2.90230 129 ft 5 kts 45°
2026-05-08 17:57 43.29973 -2.90218 130 ft 4 kts 355°
2026-05-08 17:57 43.29994 -2.90239 127 ft 4 kts 307°
2026-05-08 17:58 43.30013 -2.90288 126 ft 8 kts 297°
2026-05-08 17:58 43.30038 -2.90358 131 ft 8 kts 294°
2026-05-08 17:58 43.30065 -2.90430 127 ft 9 kts 297°
2026-05-08 17:58 43.30094 -2.90508 128 ft 9 kts 297°
2026-05-08 17:59 43.30107 -2.90543 128 ft 2 kts 297°
2026-05-08 17:59 43.30121 -2.90568 131 ft 4 kts 317°
2026-05-08 17:59 43.30151 -2.90576 130 ft 5 kts 14°
2026-05-08 17:59 43.30180 -2.90557 129 ft 5 kts 28°
2026-05-08 18:00 43.30199 -2.90544 126 ft 0 kts 27°
2026-05-08 18:00 43.30226 -2.90528 127 ft 2 kts 24°
2026-05-08 18:00 43.30240 -2.90515 130 ft 0 kts 44°
2026-05-08 18:01 43.30248 -2.90500 130 ft 4 kts 52°
2026-05-08 18:01 43.30262 -2.90471 125 ft 4 kts 57°
2026-05-08 18:01 43.30276 -2.90441 127 ft 3 kts 57°
2026-05-08 18:01 43.30277 -2.90439 127 ft 0 kts 57°